[[{"header":{"parameterUnit":"m.s-1","parameterCategory":1,"la1":30.2991,"la2":30.254,"lo1":-89.0895,"lo2":-89.0444,"dy":0.0017,"dx":0.0017,"nx":28,"ny":28,"refTime":"2025-06-15T21:00:00:Z","depth":0,"parameterNumber":2,"parameterNumberName":"U-component_of_WINDS"},"data":[0,0,0,0,0,0,0,0,0,0,0,0,0,0,0,0,0,0,0,0,0,0,0,0,0,0,0,0,0,0,0,0,0,0,0,0,0,0,0,0,0,0,0,0,0,0,0,0,0,0,0,0,0,0,0,0,0,0,1.6072,1.6073,0,1.6137,1.6138,1.6139,1.6115,1.6113,1.6112,1.6111,1.6181,1.6184,1.6187,0,0,0,0,0,0,0,0,0,0,0,0,0,1.5928,1.5931,1.6072,1.6073,1.6074,1.6137,1.6138,1.6139,1.6115,1.6113,1.6112,1.611,1.6179,1.6183,1.6187,0,0,0,0,0,0,0,0,0,0,0,0,0,1.5992,1.5932,1.6072,1.6069,1.607,1.6137,1.6138,1.6139,1.6116,1.6113,1.6111,1.6109,1.6178,1.6183,1.6188,1.6262,0,0,1.6203,1.6205,0,0,0,0,0,0,0,0,1.5988,1.5997,1.6069,1.607,1.607,1.6116,1.6113,1.6181,1.6116,1.6098,1.611,1.6108,1.6161,1.6167,1.6184,1.6266,1.6269,1.6203,1.6206,1.6208,1.6209,0,0,0,0,0,0,0,1.5984,1.5994,1.6098,1.607,1.6071,1.6065,1.6072,1.6126,1.6141,1.61,1.6098,1.6106,1.6161,1.618,1.6186,1.627,1.6203,1.6207,1.621,1.6212,1.6414,1.6416,0,0,0,0,0,0,1.5979,1.5991,1.6096,1.61,1.6023,1.607,1.6077,1.6103,1.6141,1.6144,1.6108,1.6105,1.6172,1.618,1.6188,1.6277,1.6208,1.6213,1.6215,1.6412,1.6415,1.6417,0,0,0,0,0,0,1.5976,1.5989,1.6093,1.6045,1.6058,1.6075,1.6104,1.6106,1.6124,1.6147,1.615,1.6124,1.6171,1.6181,1.6243,1.6279,1.6215,1.6219,1.6409,1.6413,1.6416,1.6455,0,0,0,0,0,0,1.5972,1.5988,1.6016,1.6046,1.606,1.6147,1.6106,1.6109,1.6133,1.6129,1.6163,1.6166,1.617,1.6236,1.6248,1.6284,1.6223,1.6406,1.6411,1.6415,1.6451,1.646,1.6468,0,0,0,0,0,1.5967,1.6025,1.6017,1.603,1.6096,1.6149,1.6157,1.616,1.6136,1.6164,1.6178,1.6165,1.6273,1.6243,1.6256,1.6294,1.6404,1.6409,1.6415,1.6447,1.6458,1.6467,0,0,0,0,0,0,1.6,1.6029,1.6021,1.609,1.6117,1.6145,1.6181,1.6171,1.6207,1.6202,1.6204,1.6212,1.6276,1.6292,1.6257,1.6368,1.6335,1.6343,1.6355,1.6366,1.6374,1.6369,1.6227,0,0,0,0,0,1.6015,1.6055,1.6079,1.6138,1.6152,1.6164,1.6187,1.6187,1.6215,1.6227,1.6245,1.6274,1.6315,1.6341,1.638,1.6453,1.646,1.6486,1.6495,1.6501,1.6508,1.6548,1.6559,1.6435,1.6435,1.6435,0,0,1.6048,1.6068,1.6094,1.6145,1.6166,1.6207,1.6174,1.622,1.6251,1.6234,1.6293,1.6308,1.6341,1.6408,1.6439,1.6423,1.6544,1.6508,1.6513,1.6517,1.6554,1.6566,1.6577,1.6439,1.6439,1.6438,0,0,1.6127,1.6147,1.6198,1.6219,1.625,1.6258,1.627,1.6299,1.6308,1.6367,1.6355,1.6393,1.6463,1.6486,1.6507,1.6594,1.6583,1.6607,1.665,1.6688,1.6698,1.6707,1.6737,1.6748,1.6614,1.6614,1.6614,0,1.6163,1.6225,1.6225,1.6272,1.6295,1.628,1.6331,1.6352,1.6395,1.6412,1.6393,1.6479,1.65,1.6573,1.6594,1.6612,1.6626,1.6603,1.6697,1.6705,1.6713,1.6742,1.6754,1.6617,1.6616,1.6616,1.6616,0,1.6267,1.631,1.6348,1.6388,1.6415,1.6464,1.6472,1.65,1.6496,1.6506,1.6567,1.6591,1.6634,1.6651,1.6649,1.6724,1.6712,1.6695,1.6662,1.6728,1.6755,1.6766,1.662,1.662,1.6619,1.6618,0,0,1.637,1.6409,1.6422,1.644,1.6473,1.6507,1.6555,1.6595,1.6619,1.6649,1.6689,1.6748,1.6732,1.6756,1.6756,1.679,1.6857,1.6769,1.677,1.6784,1.6939,1.6951,1.6964,1.685,1.6852,1.6854,1.6936,0,1.6451,1.6534,1.6536,1.6612,1.6651,1.6638,1.668,1.6705,1.6716,1.6751,1.6763,1.6804,1.6781,1.6795,1.6827,1.6842,1.6888,1.6836,1.6888,1.689,1.6879,1.6979,1.6992,1.7068,1.6947,1.6949,1.695,0,1.6557,1.6589,1.6669,1.6695,1.6712,1.675,1.6786,1.682,1.6849,1.6854,1.688,1.6876,1.6925,1.6891,1.6959,1.6923,1.6945,1.6955,1.6958,1.6963,1.6923,1.6985,1.7093,1.7104,1.6967,1.6966,1.6965,0,1.6622,1.6685,1.6741,1.6757,1.6789,1.6816,1.6831,1.6857,1.6881,1.6914,1.6929,1.6968,1.6989,1.7019,1.7025,1.7,1.7094,1.706,1.71,1.7099,1.7119,1.7118,1.7231,1.7135,1.7135,1.7134,1.7134,0,1.6712,1.6761,1.677,1.6805,1.6859,1.6861,1.6916,1.6929,1.6952,1.6989,1.6981,1.7016,1.7022,1.7059,1.7064,1.7119,1.713,1.7135,1.7136,1.7136,1.7135,1.7149,1.7144,1.7137,1.7137,1.7136,1.7136,0,1.6794,1.6802,1.6861,1.6887,1.6895,1.6934,1.6956,1.6989,1.6999,1.7045,1.7057,1.7072,1.7114,1.7123,1.7175,1.7178,1.7244,1.724,1.7234,1.7233,1.7272,1.7268,1.7398,1.7415,1.7308,1.7309,1.731,0,1.685,1.6888,1.6917,1.694,1.6956,1.6995,1.7018,1.7022,1.7047,1.7082,1.7111,1.7152,1.7185,1.7254,1.727,1.7309,1.7306,1.7349,1.7312,1.731,1.7306,1.7303,1.7306,1.7356,1.7357,1.7358,1.7359,0,1.6949,1.6951,1.6985,1.7021,1.7049,1.7078,1.7105,1.7125,1.7132,1.7161,1.7204,1.723,1.7281,1.7322,1.7361,1.7378,1.737,1.737,1.7381,1.7381,1.7375,1.7378,1.7252,1.7367,1.7366,1.7366,1.7365,1.7365,1.7019,1.7051,1.7077,1.7115,1.7135,1.7161,1.7193,1.7205,1.7241,1.7282,1.7282,1.7329,1.7356,1.7407,1.7426,1.7463,1.745,1.7466,1.747,1.7474,1.7477,1.737,1.747,1.747,1.747,1.747,1.747,0,1.7117,1.7132,1.7167,1.7205,1.7235,1.7224,1.7253,1.7279,1.732,1.7346,1.7378,1.7427,1.7467,1.7486,1.7526,1.7552,1.7549,1.7562,1.756,1.7564,1.7487,1.7473,1.7563,1.7563,1.7563,1.7563,1.7563,1.7563,1.7171,1.7224,1.7229,1.7293,1.7308,1.7353,1.737,1.7394,1.7414,1.7469,1.7501,1.7513,1.7536,1.7577,1.7613,1.7618,1.7633,1.7648,1.765,1.7579,1.7569,1.756,1.7547,1.7651,1.7651,1.7724,1.7724,1.7725]},{"header":{"parameterUnit":"m.s-1","parameterCategory":1,"la1":30.2991,"la2":30.254,"lo1":-89.0895,"lo2":-89.0444,"dy":0.0017,"dx":0.0017,"nx":28,"ny":28,"refTime":"2025-06-15T21:00:00:Z","depth":0,"parameterNumber":3,"parameterNumberName":"V-component_of_WINDS"},"data":[0,0,0,0,0,0,0,0,0,0,0,0,0,0,0,0,0,0,0,0,0,0,0,0,0,0,0,0,0,0,0,0,0,0,0,0,0,0,0,0,0,0,0,0,0,0,0,0,0,0,0,0,0,0,0,0,0,0,3.3689,3.3691,0,3.3831,3.3833,3.3835,3.383,3.3828,3.3826,3.3825,3.3969,3.3974,3.398,0,0,0,0,0,0,0,0,0,0,0,0,0,3.3411,3.3416,3.3689,3.3691,3.3693,3.3831,3.3833,3.3835,3.3831,3.3828,3.3826,3.3824,3.3967,3.3974,3.398,0,0,0,0,0,0,0,0,0,0,0,0,0,3.354,3.3418,3.3689,3.3707,3.371,3.3831,3.3833,3.3836,3.3831,3.3828,3.3825,3.3823,3.3965,3.3973,3.3981,3.4092,0,0,3.4007,3.4011,0,0,0,0,0,0,0,0,3.3533,3.3551,3.3703,3.3706,3.371,3.381,3.3788,3.3922,3.3832,3.3785,3.3825,3.3821,3.3918,3.393,3.3964,3.4099,3.4105,3.4008,3.4013,3.4017,3.4019,0,0,0,0,0,0,0,3.3524,3.3544,3.3745,3.3705,3.3709,3.3707,3.3723,3.3813,3.3866,3.3789,3.3789,3.3806,3.392,3.3955,3.3967,3.4107,3.4008,3.4015,3.4021,3.4024,3.4339,3.4342,0,0,0,0,0,0,3.3512,3.3537,3.3741,3.375,3.3612,3.3715,3.3732,3.3781,3.3865,3.3876,3.3808,3.3805,3.3942,3.3957,3.3972,3.4107,3.4017,3.4025,3.403,3.4336,3.434,3.4344,0,0,0,0,0,0,3.3506,3.353,3.3735,3.3643,3.3669,3.3723,3.3778,3.3785,3.3821,3.388,3.3889,3.3835,3.3941,3.396,3.4062,3.4111,3.4029,3.4036,3.4332,3.4337,3.4342,3.4377,0,0,0,0,0,0,3.3498,3.3528,3.3571,3.3644,3.3674,3.3824,3.3781,3.379,3.3836,3.3833,3.3908,3.3917,3.394,3.4049,3.4071,3.4122,3.4043,3.4328,3.4334,3.434,3.4372,3.4383,3.4392,0,0,0,0,0,3.3488,3.3576,3.3573,3.3598,3.373,3.3827,3.3844,3.3868,3.384,3.3883,3.3921,3.3915,3.4102,3.406,3.4084,3.4138,3.4325,3.4333,3.434,3.4367,3.438,3.4392,0,0,0,0,0,0,3.3507,3.3586,3.3584,3.3698,3.3756,3.3826,3.3882,3.3882,3.3948,3.3943,3.397,3.3987,3.4089,3.4124,3.4075,3.4249,3.421,3.4222,3.4223,3.4236,3.4246,3.4235,3.405,0,0,0,0,0,3.3524,3.3597,3.3662,3.3756,3.3785,3.3828,3.3872,3.3885,3.3946,3.397,3.4015,3.4074,3.4146,3.4193,3.4262,3.4376,3.4392,3.4425,3.4435,3.4443,3.4454,3.4515,3.4531,3.4368,3.4368,3.4368,0,0,3.3561,3.3613,3.3657,3.3761,3.3807,3.3881,3.3849,3.3929,3.3984,3.3982,3.4081,3.4116,3.4183,3.4291,3.4341,3.4324,3.4502,3.4453,3.4459,3.4465,3.4524,3.454,3.4553,3.4373,3.4372,3.4371,0,0,3.3666,3.3713,3.3796,3.3843,3.3913,3.3941,3.3961,3.4031,3.4054,3.4154,3.4154,3.4219,3.4343,3.439,3.443,3.4551,3.4547,3.4573,3.4626,3.4685,3.4698,3.4709,3.4752,3.4767,3.4583,3.4583,3.4583,0,3.3703,3.3815,3.3839,3.3919,3.3964,3.3966,3.405,3.4094,3.4183,3.4214,3.4192,3.4347,3.4392,3.451,3.454,3.4572,3.4595,3.4565,3.4694,3.4706,3.4717,3.4758,3.4774,3.4586,3.4585,3.4585,3.4585,0,3.3856,3.3934,3.3992,3.4078,3.413,3.4212,3.4247,3.4296,3.4305,3.4334,3.4435,3.4489,3.4569,3.4598,3.4608,3.4718,3.4705,3.4689,3.465,3.4735,3.4773,3.4789,3.4589,3.4589,3.4588,3.4587,0,0,3.3978,3.4076,3.4097,3.4135,3.4212,3.4272,3.4353,3.4431,3.4472,3.4533,3.4601,3.4704,3.469,3.4735,3.475,3.4802,3.4893,3.4779,3.4781,3.4798,3.5016,3.5028,3.5045,3.489,3.4894,3.4896,3.501,0,3.4091,3.4235,3.4258,3.4385,3.4456,3.4457,3.4527,3.4581,3.4611,3.4675,3.4707,3.478,3.4755,3.4783,3.4834,3.4871,3.4937,3.4863,3.4953,3.4956,3.4936,3.5066,3.5079,3.5184,3.5026,3.5028,3.503,0,3.4242,3.4307,3.444,3.4506,3.4536,3.4599,3.4672,3.4733,3.4794,3.4811,3.4861,3.4869,3.4952,3.4909,3.5022,3.4971,3.5009,3.5033,3.5037,3.5047,3.4998,3.5078,3.5219,3.5234,3.5054,3.5052,3.5051,0,3.4317,3.4437,3.4532,3.4565,3.4644,3.4688,3.4723,3.4781,3.4826,3.4889,3.4918,3.499,3.5029,3.5084,3.5111,3.5077,3.5222,3.5182,3.5238,3.5237,3.5269,3.5267,3.5417,3.5294,3.5293,3.5293,3.5293,0,3.444,3.4521,3.4566,3.4625,3.4715,3.4741,3.4829,3.4863,3.4914,3.4978,3.4984,3.5043,3.5075,3.5139,3.516,3.525,3.5268,3.5284,3.5288,3.5283,3.5281,3.5309,3.5302,3.5297,3.5296,3.5295,3.5295,0,3.4539,3.4573,3.4676,3.4742,3.4761,3.4825,3.4881,3.4937,3.4965,3.5046,3.5067,3.5111,3.5187,3.5219,3.5312,3.5326,3.5429,3.5428,3.5409,3.541,3.5464,3.5459,3.5638,3.5662,3.5523,3.5524,3.5525,0,3.4616,3.4678,3.4751,3.4794,3.483,3.49,3.4946,3.4972,3.502,3.5092,3.5139,3.5215,3.5277,3.5398,3.5438,3.5509,3.5509,3.5567,3.552,3.5513,3.551,3.5506,3.5511,3.5576,3.5577,3.5578,3.5579,0,3.4747,3.476,3.4827,3.4898,3.4953,3.501,3.5066,3.5101,3.5136,3.5189,3.5266,3.5314,3.5409,3.5484,3.5556,3.5591,3.5591,3.5594,3.561,3.5606,3.5592,3.56,3.5432,3.559,3.5589,3.5588,3.5587,3.5587,3.4837,3.4892,3.4952,3.5025,3.5069,3.5121,3.5177,3.5212,3.5277,3.5357,3.5368,3.545,3.5508,3.5605,3.5643,3.5707,3.5693,3.5717,3.5723,3.5729,3.5732,3.5581,3.5721,3.572,3.572,3.572,3.572,0,3.4969,3.5007,3.5073,3.5152,3.5209,3.5203,3.5265,3.5313,3.5385,3.5439,3.55,3.5588,3.566,3.5705,3.5778,3.582,3.5822,3.5838,3.5835,3.5843,3.5741,3.5719,3.5836,3.5836,3.5836,3.5835,3.5835,3.5835,3.5044,3.5137,3.5156,3.5271,3.5308,3.5389,3.5424,3.5472,3.5515,3.5613,3.5673,3.5702,3.5752,3.5828,3.5893,3.5904,3.5931,3.5948,3.5958,3.5862,3.585,3.5839,3.5818,3.5954,3.5954,3.6055,3.6056,3.6057]}]]